Wind_Speed
6 5 5 4 4 5 6 7 8 9 10 10 10 10 10 11 10 10 10 11 11 10 9 8 7 6 6 5 5 4 3 3 2 1 1 1 1 1 2 2 3 3 3
7 7 6 6 6 6 7 8 9 10 11 12 12 11 12 12 12 12 12 12 12 11 11 10 8 7 7 6 5 4 3 3 2 1 1 1 1 1 2 2 2 3 3
8 8 8 8 7 8 8 9 10 11 12 13 13 13 13 13 13 13 13 13 13 13 12 11 10 9 8 7 6 5 4 3 2 2 1 1 0 1 1 2 2 2 2
9 9 9 9 9 9 10 10 11 12 13 13 14 14 14 14 14 14 14 14 14 13 13 12 11 10 9 8 7 6 5 4 3 2 2 1 0 1 1 1 2 2 2
10 10 10 10 10 10 11 12 12 13 14 14 15 15 16 15 15 15 15 15 15 14 13 13 12 11 9 8 7 6 6 5 4 3 3 2 1 1 2 2 2 2 2
11 11 10 10 11 12 12 13 14 14 15 15 16 17 17 16 16 16 16 16 16 15 14 13 13 12 10 9 8 7 6 6 5 4 4 3 3 3 3 3 3 2 2
12 12 11 12 12 13 13 14 15 15 16 17 17 18 18 18 17 17 17 17 17 16 15 14 14 13 11 10 9 8 7 7 6 6 5 5 4 4 4 4 4 4 3
14 14 13 13 14 14 14 15 16 16 17 17 18 18 18 18 18 18 18 18 17 17 16 15 15 14 13 11 11 9 8 8 8 7 7 6 6 5 5 5 5 4 4
16 16 15 16 15 15 16 16 17 18 18 19 19 19 20 20 20 19 19 19 18 18 17 16 16 15 14 13 12 11 10 10 9 9 8 8 7 7 7 6 6 6 5
18 18 17 18 16 17 17 17 18 18 18 19 20 20 21 21 21 21 20 20 19 19 18 17 17 16 15 14 13 12 11 11 10 10 10 9 9 8 8 8 7 7 6
20 20 18 18 18 18 18 18 18 19 19 19 20 20 21 22 22 22 22 21 21 20 19 18 18 17 16 15 14 13 12 12 12 12 11 11 11 10 10 9 9 9 8
22 21 20 19 19 19 19 20 19 19 19 20 21 21 22 22 22 22 23 23 22 22 21 20 19 18 17 17 16 15 14 13 13 13 13 13 12 12 11 11 11 10 10
24 24 22 20 21 21 21 21 20 20 20 21 22 22 23 23 23 23 24 24 23 23 22 21 20 19 19 18 17 16 15 15 15 14 14 14 14 14 13 13 12 12 11
23 25 26 23 22 22 22 21 22 21 21 20 21 22 23 23 23 22 23 24 23 23 22 21 21 20 20 19 18 17 17 16 16 15 16 15 15 15 15 15 14 13 13
25 24 25 25 23 23 23 23 23 23 23 22 21 22 22 23 23 23 23 23 24 24 23 21 20 21 21 20 20 19 19 18 17 17 17 17 16 16 16 16 16 15 14
26 26 26 25 24 24 25 24 23 24 24 22 22 23 23 23 23 22 22 22 23 23 22 21 20 20 20 20 20 20 19 19 18 18 18 18 19 19 18 17 17 17 17
28 28 27 27 25 25 26 25 24 25 24 24 24 24 24 24 25 24 23 23 22 22 22 22 20 20 20 20 20 20 20 20 20 20 20 20 20 20 20 20 20 20 19
29 30 28 28 27 26 26 26 26 26 26 25 26 25 25 25 24 23 23 23 22 22 23 23 21 21 21 21 21 22 22 22 21 21 21 22 22 22 22 22 22 22 22
30 30 28 29 29 29 28 28 28 27 27 26 25 25 25 26 25 24 24 24 24 24 24 24 24 23 22 22 22 23 24 23 23 23 23 23 23 23 24 24 24 24 24
31 31 30 30 29 29 30 29 28 26 26 25 26 25 25 26 25 26 25 25 24 24 24 25 26 25 24 24 23 24 25 25 24 24 24 25 25 25 25 26 26 26 26
31 31 31 31 32 30 29 30 28 28 27 25 25 26 25 24 25 25 26 26 26 26 25 25 26 26 25 25 26 26 26 27 26 26 26 26 25 26 27 28 28 28 28
29 30 30 30 31 31 30 29 29 29 27 27 25 25 24 24 23 26 27 27 26 26 27 26 26 26 27 26 27 28 28 28 28 28 28 28 27 27 28 28 29 30 31
29 30 30 29 29 30 30 30 29 29 28 26 25 25 24 23 22 23 25 25 24 23 25 26 27 26 26 26 26 27 28 29 30 30 30 30 30 29 29 31 31 31 32
28 28 29 29 29 29 30 29 29 28 27 26 24 23 22 23 24 24 24 25 24 25 25 25 25 27 27 27 27 27 28 29 30 31 32 32 32 32 31 32 33 34 34
28 28 28 28 28 29 29 29 30 30 29 28 27 25 23 24 25 24 24 24 25 26 26 26 27 28 28 29 30 31 31 30 30 32 32 33 34 34 33 34 35 34 35
26 27 26 28 28 28 28 29 29 29 29 28 27 26 26 26 25 24 25 25 25 26 27 28 29 29 28 29 30 32 32 32 32 33 34 34 35 36 36 35 36 36 36
Wind_Direction
297 291 286 279 269 260 260 253 245 245 249 254 258 263 268 273 279 281 282 285 286 286 285 282 277 274 269 262 256 250 241 235 229 223 185 146 105 80 67 57 56 54 56
278 280 273 269 264 262 261 256 251 251 252 255 257 261 266 271 275 279 282 285 287 286 285 282 279 274 270 264 258 253 248 240 231 222 196 161 112 67 57 50 46 43 47
272 269 266 262 261 261 260 259 256 253 254 256 257 259 264 269 274 278 281 284 285 285 283 280 278 275 271 266 260 256 255 250 241 235 218 190 84 40 37 38 36 29 27
272 269 266 263 262 262 261 257 257 256 256 258 258 260 263 267 271 275 279 282 284 283 281 279 277 275 272 267 262 260 259 253 245 243 243 245 287 354 360 7 15 12 9
272 270 268 264 261 260 260 258 258 257 257 257 258 261 263 265 267 270 275 278 281 280 278 277 276 274 272 267 264 262 259 256 248 249 256 265 274 293 306 321 333 343 346
268 269 268 266 262 260 260 259 257 257 256 256 257 260 262 263 265 268 271 274 276 276 274 273 272 272 271 267 264 261 257 254 249 253 262 265 269 277 283 295 304 307 318
267 266 265 267 263 260 259 258 257 255 255 255 257 259 260 261 264 266 268 270 272 272 270 269 268 269 268 266 263 259 255 253 252 255 260 262 265 271 277 286 296 297 303
264 264 266 265 261 260 259 259 259 256 255 255 257 258 258 260 263 266 267 267 269 269 267 265 265 264 265 264 261 258 253 251 253 254 256 257 260 267 271 277 283 287 295
265 263 264 266 261 261 262 260 259 257 256 257 258 258 259 260 262 264 266 265 266 266 264 262 261 262 262 260 259 257 253 251 253 254 255 255 258 265 268 272 277 277 283
265 263 263 263 262 262 260 259 258 258 258 258 258 258 258 259 260 262 264 263 263 263 261 259 259 260 260 258 257 256 253 253 254 253 256 257 259 263 266 270 273 277 280
263 264 263 261 260 260 258 258 257 257 257 258 258 259 259 259 259 260 262 263 263 261 259 257 256 257 257 256 255 254 254 253 253 253 256 259 261 262 263 267 273 277 280
258 260 261 263 259 258 259 258 257 257 258 257 258 257 260 260 259 261 261 261 261 260 259 257 255 255 254 254 253 252 252 252 254 255 258 259 260 261 263 268 272 275 278
255 256 257 258 256 256 259 258 257 258 257 258 261 261 259 262 262 261 261 261 261 260 258 257 255 254 252 253 254 253 252 253 254 255 255 256 259 260 263 266 269 272 277
257 256 258 259 258 258 259 258 258 259 259 261 261 262 261 260 263 263 260 259 259 260 258 256 255 255 251 251 252 252 251 252 252 254 255 257 259 261 263 265 268 272 276
261 261 261 262 260 259 257 260 260 260 261 264 261 260 260 260 261 260 257 258 257 256 255 253 253 254 253 253 251 250 250 251 251 253 253 254 257 260 263 264 267 271 274
261 263 264 260 259 263 263 261 259 258 258 260 261 262 259 257 258 259 257 257 258 254 252 250 252 252 252 251 252 251 249 250 251 252 253 253 254 257 261 264 268 269 272
261 261 263 263 263 263 261 259 260 260 259 259 260 260 257 256 255 257 256 257 258 255 254 251 251 250 250 251 252 251 251 252 252 252 254 255 256 259 262 264 267 270 272
263 262 261 262 263 265 261 257 257 260 261 260 258 259 256 256 255 253 254 254 254 252 253 251 252 251 248 250 250 251 251 251 252 253 254 256 257 259 262 263 265 268 270
264 265 265 264 263 264 263 259 256 258 259 257 257 258 255 255 255 254 251 253 253 251 251 252 252 252 249 251 251 252 250 252 254 255 255 258 259 260 261 263 267 268 270
265 265 265 264 266 264 264 262 259 255 255 255 256 256 255 253 252 250 249 250 251 251 250 251 253 251 251 251 251 252 250 252 254 256 258 259 260 261 263 265 268 270 271
264 263 263 265 266 265 263 264 264 262 259 259 254 257 256 252 249 249 253 254 254 254 253 255 254 251 251 251 252 252 252 253 253 256 258 259 261 264 266 267 269 271 274
268 266 265 266 266 266 267 269 267 266 261 259 256 255 253 248 251 252 252 254 257 256 255 255 254 254 253 252 251 251 253 254 255 257 259 261 262 265 267 267 268 271 274
269 268 266 268 268 267 268 268 270 270 268 267 261 258 257 255 255 258 254 253 254 256 256 255 254 254 253 253 253 253 253 254 257 258 259 261 263 265 267 267 269 271 273
268 268 267 267 268 268 268 269 270 270 270 271 268 264 264 262 259 260 261 259 257 258 258 256 254 253 252 252 254 256 257 259 259 259 260 261 263 264 266 269 271 274 275
270 269 267 267 267 267 266 267 269 268 269 270 269 266 265 264 262 264 264 262 261 262 261 259 258 255 254 254 255 257 260 259 260 262 263 263 265 267 269 271 273 275 276
271 268 268 265 265 265 266 266 267 266 268 269 267 267 266 265 263 263 264 263 262 264 261 259 260 259 259 258 258 258 259 260 263 264 265 265 267 269 271 272 274 275 278
Height
5898 5897 5898 5898 5898 5899 5899 5900 5901 5901 5902 5903 5903 5903 5904 5904 5904 5904 5904 5904 5903 5903 5902 5901 5900 5900 5899 5898 5898 5897 5896 5896 5896 5895 5894 5894 5893 5893 5892 5891 5890 5890 5889
5897 5897 5896 5897 5897 5898 5898 5899 5900 5900 5901 5902 5902 5902 5903 5903 5903 5903 5903 5902 5902 5902 5901 5900 5900 5899 5898 5898 5897 5897 5896 5896 5895 5895 5894 5894 5893 5892 5892 5891 5890 5890 5890
5895 5895 5895 5895 5896 5896 5897 5898 5899 5899 5900 5900 5901 5901 5901 5901 5901 5901 5901 5901 5901 5900 5900 5899 5899 5898 5898 5897 5897 5896 5896 5895 5895 5895 5894 5893 5893 5892 5892 5891 5891 5890 5890
5893 5893 5893 5894 5894 5895 5895 5896 5897 5898 5898 5899 5899 5899 5899 5900 5900 5900 5900 5900 5899 5899 5899 5898 5897 5897 5897 5896 5896 5895 5895 5895 5894 5894 5894 5893 5893 5892 5892 5891 5891 5890 5890
5891 5891 5891 5891 5892 5893 5893 5894 5895 5895 5896 5896 5897 5897 5897 5898 5898 5898 5898 5898 5898 5897 5897 5897 5896 5896 5895 5895 5895 5895 5894 5894 5894 5893 5893 5893 5892 5892 5892 5891 5891 5890 5890
5888 5889 5889 5889 5890 5890 5891 5892 5892 5893 5893 5894 5894 5895 5895 5895 5896 5896 5896 5896 5896 5896 5895 5895 5894 5894 5894 5894 5894 5894 5893 5893 5893 5893 5893 5893 5892 5892 5892 5891 5891 5890 5890
5885 5886 5886 5886 5887 5888 5888 5889 5889 5890 5890 5891 5892 5892 5892 5893 5893 5893 5893 5893 5893 5893 5893 5893 5893 5892 5892 5892 5892 5892 5892 5892 5892 5892 5892 5892 5892 5892 5891 5891 5890 5890 5889
5883 5883 5883 5884 5884 5885 5885 5886 5886 5887 5887 5888 5888 5889 5889 5890 5890 5890 5891 5891 5891 5891 5891 5891 5890 5890 5890 5890 5891 5891 5891 5891 5891 5891 5891 5891 5891 5891 5891 5890 5890 5889 5889
5880 5880 5881 5881 5882 5882 5882 5883 5883 5883 5883 5884 5885 5885 5886 5886 5887 5887 5887 5887 5888 5888 5888 5888 5888 5888 5888 5888 5889 5889 5889 5889 5889 5889 5889 5890 5890 5890 5890 5889 5889 5888 5888
5876 5877 5877 5877 5878 5879 5879 5879 5879 5880 5880 5880 5881 5881 5882 5882 5883 5883 5884 5884 5884 5884 5885 5885 5885 5885 5885 5886 5886 5887 5887 5887 5888 5888 5888 5888 5888 5888 5888 5888 5887 5887 5886
5872 5873 5873 5874 5874 5874 5874 5875 5875 5875 5876 5876 5877 5877 5878 5878 5878 5879 5880 5880 5880 5881 5881 5881 5882 5882 5882 5883 5883 5884 5885 5885 5885 5886 5886 5886 5886 5886 5886 5886 5886 5886 5885
5869 5869 5869 5869 5869 5870 5870 5870 5871 5871 5871 5872 5872 5873 5873 5873 5874 5875 5875 5875 5876 5876 5877 5877 5878 5879 5879 5880 5880 5881 5882 5882 5883 5883 5883 5884 5884 5884 5884 5884 5884 5884 5883
5865 5864 5864 5865 5865 5865 5865 5865 5866 5867 5867 5867 5867 5868 5868 5869 5869 5870 5870 5870 5871 5872 5872 5873 5873 5874 5875 5876 5877 5878 5878 5879 5880 5880 5880 5881 5881 5881 5881 5881 5881 5881 5881
5860 5860 5860 5860 5860 5860 5860 5860 5861 5862 5862 5862 5862 5862 5863 5864 5864 5865 5865 5866 5866 5867 5868 5868 5869 5870 5871 5872 5873 5874 5875 5875 5876 5877 5877 5878 5878 5878 5878 5878 5878 5878 5878
5855 5854 5854 5855 5855 5855 5855 5855 5855 5856 5857 5857 5857 5857 5858 5859 5859 5860 5860 5860 5861 5862 5863 5863 5864 5865 5866 5868 5869 5870 5870 5871 5872 5873 5873 5874 5874 5874 5875 5875 5875 5875 5875
5849 5849 5849 5849 5850 5850 5850 5849 5849 5850 5851 5851 5851 5851 5852 5853 5854 5854 5855 5855 5856 5856 5857 5858 5859 5860 5862 5863 5864 5865 5866 5867 5868 5868 5869 5870 5870 5871 5871 5871 5871 5871 5871
5842 5843 5844 5844 5845 5846 5845 5844 5843 5844 5845 5846 5846 5845 5846 5847 5848 5849 5850 5850 5850 5851 5852 5853 5855 5856 5857 5858 5859 5860 5861 5862 5863 5864 5865 5866 5866 5866 5867 5867 5867 5867 5867
5836 5836 5837 5838 5839 5839 5839 5839 5838 5838 5839 5840 5840 5840 5841 5841 5842 5843 5844 5845 5845 5846 5847 5849 5850 5851 5852 5853 5854 5855 5856 5857 5858 5859 5860 5861 5861 5862 5862 5862 5862 5862 5862
5830 5830 5831 5831 5831 5832 5833 5833 5832 5832 5833 5834 5833 5833 5834 5835 5836 5837 5839 5839 5840 5841 5842 5843 5845 5846 5847 5848 5849 5850 5851 5852 5853 5854 5855 5855 5856 5856 5857 5857 5857 5856 5856
5824 5824 5825 5825 5822 5823 5824 5824 5824 5824 5826 5826 5827 5827 5827 5829 5830 5830 5832 5833 5834 5835 5836 5838 5839 5840 5841 5842 5843 5844 5846 5847 5847 5848 5849 5850 5850 5851 5851 5851 5851 5851 5851
5817 5817 5818 5818 5817 5815 5816 5816 5816 5816 5819 5820 5821 5821 5822 5822 5822 5824 5826 5827 5828 5829 5831 5832 5833 5834 5835 5836 5837 5838 5839 5840 5842 5843 5843 5844 5844 5845 5845 5845 5845 5845 5844
5810 5810 5811 5812 5811 5810 5809 5809 5811 5810 5812 5814 5814 5815 5815 5815 5816 5818 5820 5821 5822 5823 5824 5825 5826 5827 5828 5829 5831 5832 5833 5834 5835 5836 5837 5838 5838 5838 5838 5838 5838 5838 5837
5804 5804 5804 5804 5805 5805 5804 5804 5805 5806 5806 5807 5807 5808 5809 5810 5811 5811 5812 5814 5815 5816 5817 5818 5819 5821 5822 5823 5824 5826 5827 5827 5828 5829 5829 5831 5831 5832 5832 5832 5831 5830 5830
5798 5798 5798 5798 5798 5799 5799 5799 5800 5800 5801 5801 5801 5801 5802 5804 5805 5805 5807 5808 5809 5810 5811 5811 5813 5814 5815 5816 5817 5819 5820 5821 5821 5821 5822 5823 5824 5824 5824 5824 5823 5822 5822
5791 5791 5792 5792 5792 5792 5793 5793 5793 5794 5795 5796 5796 5795 5796 5798 5799 5799 5800 5801 5802 5803 5804 5804 5806 5807 5808 5809 5810 5811 5812 5813 5813 5814 5814 5815 5816 5816 5816 5815 5815 5814 5813
5784 5784 5784 5785 5785 5785 5786 5786 5787 5788 5788 5789 5789 5789 5790 5791 5792 5792 5793 5794 5794 5795 5796 5797 5798 5799 5800 5802 5802 5803 5804 5805 5806 5806 5806 5807 5807 5808 5807 5807 5806 5805 5804